PDT,Max TemperatureF,Mean TemperatureF,Min TemperatureF,Max Dew PointF,MeanDew PointF,Min DewpointF,Max Humidity, Mean Humidity, Min Humidity, Max Sea Level PressureIn, Mean Sea Level PressureIn, Min Sea Level PressureIn, Max VisibilityMiles, Mean VisibilityMiles, Min VisibilityMiles, Max Wind SpeedMPH, Mean Wind SpeedMPH, Max Gust SpeedMPH,PrecipitationIn, CloudCover, Events, WindDirDegrees
2013-10-1,77,66,55,59,54,50,93,68,40,30.03,29.96,29.92,10,10,10,8,3,,0.00,2,,218
2013-10-2,78,66,53,51,43,31,86,53,20,30.00,29.95,29.92,10,10,7,12,4,22,0.00,0,,285
2013-10-3,77,64,52,38,29,17,53,31,11,30.12,30.05,30.01,10,10,10,22,11,32,0.00,0,,347
2013-10-4,82,67,52,32,27,15,43,24,8,30.17,30.12,30.07,10,10,10,17,10,31,0.00,0,,331
2013-10-5,82,68,54,41,31,26,43,29,13,30.24,30.18,30.14,10,10,8,7,3,,0.00,0,,338
2013-10-6,82,66,50,44,37,28,71,40,15,30.17,30.10,30.02,10,10,10,8,2,,0.00,0,,80
2013-10-7,81,64,48,44,38,30,71,42,20,30.01,29.95,29.87,10,10,10,10,5,,0.00,0,,295
2013-10-8,75,62,51,42,37,32,64,43,26,29.91,29.82,29.66,10,10,10,10,4,,0.00,0,,306
2013-10-9,75,62,50,39,37,33,63,40,25,29.76,29.65,29.58,10,10,10,18,8,30,0.00,2,,329
2013-10-10,72,62,51,46,42,36,74,51,34,30.00,29.90,29.76,10,9,5,15,7,22,0.00,0,,124
2013-10-11,73,60,48,47,44,42,80,55,32,30.09,30.02,29.97,10,10,8,9,4,,0.00,0,,63
2013-10-12,75,62,48,50,44,40,77,53,27,30.01,29.94,29.85,10,10,10,14,4,,0.00,2,Rain-Thunderstorm,153
2013-10-13,75,60,48,48,41,36,83,52,28,30.07,30.00,29.93,10,10,10,16,7,24,0.00,0,,322
2013-10-14,77,62,48,40,38,36,69,45,24,30.14,30.07,30.02,10,10,10,9,4,,0.00,0,,321
2013-10-15,84,65,48,36,31,26,58,32,14,30.09,30.02,29.96,10,10,10,14,8,25,0.00,0,,324
2013-10-16,80,62,45,40,34,28,71,38,19,30.14,30.08,30.02,10,10,10,7,3,,0.00,0,,304
2013-10-17,79,62,46,44,38,35,77,46,21,30.11,30.04,29.97,10,10,6,7,3,,0.00,0,,309
2013-10-18,80,62,46,42,39,35,80,45,21,30.08,30.03,29.99,10,10,10,8,4,,0.00,0,,113
2013-10-19,82,64,48,44,40,37,80,47,22,30.11,30.05,30.01,10,10,10,6,2,,0.00,0,,333
2013-10-20,82,65,48,45,41,38,77,46,21,30.02,29.96,29.89,10,10,10,8,2,,0.00,0,,102
2013-10-21,81,66,50,46,42,40,83,46,23,30.01,29.96,29.91,10,10,10,6,3,,0.00,0,,82
2013-10-22,82,66,50,46,41,36,75,45,19,30.04,29.97,29.91,10,10,10,6,2,,0.00,0,,300
2013-10-23,82,65,48,41,37,32,74,40,16,29.96,29.91,29.85,10,10,10,8,2,,0.00,0,,344
2013-10-24,78,63,48,47,42,34,71,49,29,30.07,29.99,29.92,10,10,10,7,3,,0.00,0,,121
2013-10-25,75,59,45,48,45,41,86,62,33,30.20,30.13,30.09,10,10,10,5,2,,0.00,0,,110
2013-10-26,77,62,46,46,42,40,83,53,29,30.18,30.10,30.02,10,10,10,4,2,,0.00,0,,35
2013-10-27,73,60,46,47,42,37,90,61,34,30.01,29.79,29.60,10,10,2,24,7,34,0.09,1,Rain,148
2013-10-28,59,52,44,47,44,42,97,75,55,29.87,29.72,29.63,10,10,10,12,6,,0.00,5,,117
2013-10-29,63,55,46,46,45,43,89,71,52,30.07,29.99,29.88,10,10,10,13,5,,0.00,6,,94
2013-10-30,66,53,42,46,42,40,97,71,40,30.18,30.12,30.07,10,10,10,5,2,,0.00,0,,29
2013-10-31,70,56,42,45,42,40,92,65,38,30.20,30.14,30.09,10,10,10,9,3,,0.00,0,,125